[[{"header":{"parameterUnit":"m.s-1","parameterCategory":1,"la1":30.2991,"la2":30.254,"lo1":-89.0895,"lo2":-89.0444,"dy":0.0017,"dx":0.0017,"nx":28,"ny":28,"refTime":"2024-05-18T09:00:00:Z","depth":0,"parameterNumber":2,"parameterNumberName":"U-component_of_WINDS"},"data":[0,0,0,0,0,0,0,0,0,0,0,0,0,0,0,0,0,0,0,0,0,0,0,0,0,0,0,0,0,0,0,0,0,0,0,0,0,0,0,0,0,0,0,0,0,0,0,0,0,0,0,0,0,0,0,0,0,0,3.4896,3.4898,0,3.5068,3.507,3.5072,3.5052,3.5049,3.5046,3.5043,3.5224,3.5231,3.5239,0,0,0,0,0,0,0,0,0,0,0,0,0,3.4555,3.4562,3.4896,3.4898,3.4901,3.5068,3.507,3.5073,3.5052,3.5049,3.5045,3.5042,3.5222,3.523,3.5239,0,0,0,0,0,0,0,0,0,0,0,0,0,3.4713,3.4564,3.4896,3.491,3.4913,3.5067,3.507,3.5073,3.5053,3.5049,3.5044,3.504,3.5219,3.523,3.5241,3.5393,0,0,3.5274,3.5279,0,0,0,0,0,0,0,0,3.4704,3.4726,3.4906,3.491,3.4913,3.5034,3.5016,3.5181,3.5054,3.5,3.5043,3.5038,3.5165,3.518,3.5221,3.5401,3.5409,3.5275,3.5282,3.5287,3.529,0,0,0,0,0,0,0,3.4693,3.4718,3.4964,3.4909,3.4913,3.491,3.4928,3.5047,3.5104,3.5004,3.5003,3.5024,3.5166,3.5211,3.5226,3.5411,3.5275,3.5285,3.5292,3.5296,3.5725,3.573,0,0,0,0,0,0,3.4678,3.4709,3.4959,3.497,3.4796,3.4919,3.4939,3.5,3.5102,3.5114,3.5027,3.5022,3.5194,3.5213,3.5232,3.5416,3.5287,3.5297,3.5304,3.572,3.5726,3.5731,0,0,0,0,0,0,3.4671,3.47,3.4952,3.4839,3.4871,3.493,3.4998,3.5005,3.505,3.5119,3.513,3.5062,3.5191,3.5216,3.5353,3.5422,3.5302,3.5312,3.5715,3.5722,3.5729,3.5786,0,0,0,0,0,0,3.4661,3.4698,3.4755,3.4841,3.4877,3.5068,3.5002,3.5012,3.5069,3.5064,3.5155,3.5166,3.519,3.5336,3.5364,3.5435,3.5321,3.5709,3.5718,3.5726,3.5779,3.5795,3.5808,0,0,0,0,0,3.4649,3.4766,3.4758,3.4788,3.4949,3.5072,3.5093,3.5117,3.5074,3.5133,3.5178,3.5164,3.541,3.535,3.5381,3.5457,3.5704,3.5715,3.5726,3.5772,3.5791,3.5808,0,0,0,0,0,0,3.4688,3.4777,3.477,3.4917,3.4987,3.5069,3.5143,3.5137,3.5222,3.5214,3.5241,3.5262,3.5399,3.5442,3.5373,3.561,3.5552,3.5569,3.5576,3.5596,3.561,3.5597,3.533,0,0,0,0,0,3.4714,3.4805,3.4878,3.5001,3.5037,3.5084,3.5139,3.515,3.5225,3.5255,3.5309,3.5384,3.5478,3.5539,3.563,3.5785,3.5805,3.5853,3.5868,3.588,3.5894,3.5979,3.6002,3.5766,3.5766,3.5766,0,0,3.4768,3.4828,3.4884,3.5011,3.5066,3.5161,3.5109,3.5212,3.5283,3.5271,3.5402,3.5445,3.553,3.5676,3.5744,3.5716,3.5964,3.5893,3.5902,3.591,3.5993,3.6015,3.6035,3.5773,3.5772,3.5771,0,0,3.4915,3.4969,3.5077,3.5134,3.5219,3.525,3.5276,3.5359,3.5386,3.5518,3.5511,3.5597,3.5759,3.5819,3.5871,3.6042,3.6032,3.6071,3.6149,3.6232,3.625,3.6267,3.6327,3.6349,3.6086,3.6086,3.6086,0,3.4972,3.5113,3.5134,3.5238,3.5294,3.5287,3.5397,3.5452,3.5563,3.5602,3.557,3.5773,3.583,3.599,3.6031,3.6074,3.6105,3.606,3.6246,3.6262,3.6278,3.6336,3.6359,3.609,3.609,3.6089,3.6089,0,3.5178,3.5277,3.5354,3.5459,3.5525,3.5632,3.5671,3.5735,3.5741,3.5776,3.5911,3.5979,3.6083,3.6122,3.6131,3.6284,3.6265,3.6239,3.6181,3.6304,3.6359,3.6382,3.6096,3.6094,3.6093,3.6092,0,0,3.5353,3.5469,3.5497,3.5545,3.5638,3.5715,3.5823,3.5923,3.5977,3.6054,3.6145,3.6283,3.6259,3.6318,3.6334,3.6407,3.6537,3.6372,3.6375,3.64,3.671,3.6728,3.6753,3.6532,3.6536,3.6539,3.6703,0,3.5508,3.5695,3.5718,3.5885,3.5977,3.5972,3.6065,3.6133,3.6169,3.6253,3.6294,3.639,3.6352,3.6388,3.646,3.6506,3.66,3.6495,3.6617,3.6621,3.6594,3.6782,3.6801,3.6952,3.6725,3.6728,3.6731,0,3.5714,3.5795,3.597,3.6051,3.609,3.6174,3.6267,3.6348,3.6426,3.6447,3.6513,3.6519,3.6631,3.657,3.6725,3.6653,3.6705,3.6735,3.6742,3.6753,3.6682,3.6797,3.7001,3.7023,3.6765,3.6762,3.676,0,3.5823,3.5976,3.6101,3.6142,3.624,3.6298,3.6342,3.6416,3.6475,3.6558,3.6596,3.6692,3.6745,3.6819,3.6852,3.6804,3.7005,3.6946,3.7026,3.7025,3.7067,3.7064,3.7281,3.7103,3.7103,3.7102,3.7102,0,3.5993,3.61,3.6151,3.6227,3.6348,3.6375,3.6494,3.6536,3.6602,3.6687,3.669,3.6771,3.6809,3.6897,3.6923,3.7047,3.7072,3.7092,3.7098,3.7091,3.7088,3.7124,3.7114,3.7109,3.7107,3.7106,3.7105,0,3.6134,3.6172,3.6307,3.6389,3.6412,3.6497,3.6567,3.6642,3.6678,3.6786,3.6813,3.687,3.6972,3.7012,3.7139,3.7156,3.7299,3.7297,3.7272,3.7274,3.7351,3.7342,3.7597,3.7631,3.7432,3.7434,3.7436,0,3.6239,3.6321,3.6411,3.6467,3.6513,3.6605,3.6664,3.6695,3.6757,3.6852,3.6916,3.7018,3.7101,3.7266,3.7319,3.7416,3.7415,3.7498,3.743,3.7421,3.7415,3.7409,3.7417,3.751,3.7512,3.7514,3.7515,0,3.6421,3.6436,3.6521,3.6613,3.6684,3.6759,3.6832,3.6879,3.692,3.6991,3.7095,3.7159,3.7287,3.7389,3.7488,3.7535,3.7533,3.7536,3.756,3.7553,3.7534,3.7544,3.7305,3.753,3.7528,3.7527,3.7526,3.7526,3.6547,3.6619,3.6693,3.6789,3.6846,3.6914,3.6988,3.7033,3.712,3.7225,3.7239,3.735,3.7428,3.756,3.7612,3.77,3.7679,3.7713,3.7721,3.7729,3.7733,3.7521,3.7719,3.7719,3.7718,3.7718,3.7718,0,3.6728,3.6775,3.6862,3.6963,3.7039,3.7029,3.7109,3.7173,3.727,3.7342,3.7423,3.7543,3.7642,3.7703,3.7802,3.7862,3.7863,3.7887,3.7882,3.7893,3.7748,3.7717,3.7884,3.7884,3.7884,3.7884,3.7884,3.7884,3.683,3.6953,3.6977,3.7128,3.7176,3.7284,3.733,3.7394,3.7451,3.7584,3.7665,3.7704,3.7772,3.7876,3.7967,3.7982,3.8018,3.8044,3.8057,3.792,3.7903,3.7887,3.7858,3.8052,3.8052,3.8195,3.8196,3.8197]},{"header":{"parameterUnit":"m.s-1","parameterCategory":1,"la1":30.2991,"la2":30.254,"lo1":-89.0895,"lo2":-89.0444,"dy":0.0017,"dx":0.0017,"nx":28,"ny":28,"refTime":"2024-05-18T09:00:00:Z","depth":0,"parameterNumber":3,"parameterNumberName":"V-component_of_WINDS"},"data":[0,0,0,0,0,0,0,0,0,0,0,0,0,0,0,0,0,0,0,0,0,0,0,0,0,0,0,0,0,0,0,0,0,0,0,0,0,0,0,0,0,0,0,0,0,0,0,0,0,0,0,0,0,0,0,0,0,0,-0.837,-0.837,0,-0.8362,-0.8362,-0.8362,-0.8379,-0.838,-0.838,-0.8381,-0.8372,-0.8371,-0.837,0,0,0,0,0,0,0,0,0,0,0,0,0,-0.8397,-0.8397,-0.837,-0.837,-0.837,-0.8362,-0.8362,-0.8362,-0.8379,-0.838,-0.838,-0.8381,-0.8372,-0.8371,-0.837,0,0,0,0,0,0,0,0,0,0,0,0,0,-0.8387,-0.8396,-0.837,-0.8377,-0.8378,-0.8362,-0.8362,-0.8362,-0.8379,-0.838,-0.838,-0.8381,-0.8372,-0.8371,-0.837,-0.8347,0,0,-0.8367,-0.8366,0,0,0,0,0,0,0,0,-0.8387,-0.8386,-0.8376,-0.8377,-0.8377,-0.8372,-0.8369,-0.8357,-0.8379,-0.8378,-0.8381,-0.8382,-0.8371,-0.837,-0.8367,-0.8347,-0.8346,-0.8367,-0.8366,-0.8366,-0.8365,0,0,0,0,0,0,0,-0.8388,-0.8386,-0.8367,-0.8376,-0.8377,-0.838,-0.838,-0.8366,-0.837,-0.8378,-0.838,-0.8379,-0.8372,-0.8368,-0.8367,-0.8346,-0.8367,-0.8366,-0.8365,-0.8365,-0.8304,-0.8303,0,0,0,0,0,0,-0.8388,-0.8387,-0.8367,-0.8367,-0.8385,-0.8379,-0.8379,-0.8373,-0.8371,-0.8371,-0.8378,-0.8379,-0.837,-0.8368,-0.8367,-0.8338,-0.8366,-0.8365,-0.8364,-0.8305,-0.8304,-0.8303,0,0,0,0,0,0,-0.8389,-0.8386,-0.8367,-0.8377,-0.8375,-0.8378,-0.8372,-0.8373,-0.8369,-0.837,-0.8371,-0.8374,-0.837,-0.8368,-0.8352,-0.8338,-0.8364,-0.8363,-0.8306,-0.8305,-0.8304,-0.8282,0,0,0,0,0,0,-0.8389,-0.8386,-0.8378,-0.8377,-0.8374,-0.8353,-0.8371,-0.8372,-0.8367,-0.8369,-0.8366,-0.8367,-0.8371,-0.8353,-0.835,-0.8337,-0.8362,-0.8308,-0.8306,-0.8304,-0.8283,-0.828,-0.8276,0,0,0,0,0,-0.839,-0.8372,-0.8378,-0.8375,-0.8364,-0.8352,-0.835,-0.8356,-0.8366,-0.8357,-0.8358,-0.8367,-0.834,-0.8351,-0.8348,-0.8335,-0.8308,-0.8306,-0.8304,-0.8285,-0.828,-0.8276,0,0,0,0,0,0,-0.8372,-0.8372,-0.8378,-0.8359,-0.8355,-0.8355,-0.8344,-0.8351,-0.8344,-0.8346,-0.8353,-0.8352,-0.8333,-0.8332,-0.8345,-0.8311,-0.8326,-0.8323,-0.8312,-0.8308,-0.8304,-0.8305,-0.8361,0,0,0,0,0,-0.8366,-0.8356,-0.8357,-0.834,-0.8338,-0.8341,-0.8336,-0.8341,-0.8337,-0.8335,-0.8335,-0.833,-0.8321,-0.8314,-0.8306,-0.8284,-0.8282,-0.8273,-0.8269,-0.8266,-0.8263,-0.825,-0.8245,-0.8296,-0.8296,-0.8296,0,0,-0.8353,-0.8352,-0.8345,-0.8336,-0.8334,-0.8323,-0.834,-0.8328,-0.832,-0.8333,-0.8317,-0.8316,-0.8312,-0.8292,-0.8283,-0.829,-0.8249,-0.8263,-0.8261,-0.826,-0.8247,-0.8242,-0.8238,-0.8295,-0.8295,-0.8295,0,0,-0.8323,-0.8322,-0.8307,-0.8304,-0.83,-0.8303,-0.8299,-0.8297,-0.8297,-0.8281,-0.829,-0.828,-0.8264,-0.826,-0.8256,-0.8224,-0.8231,-0.8221,-0.8202,-0.8188,-0.8184,-0.8181,-0.8168,-0.8164,-0.8218,-0.8218,-0.8218,0,-0.8308,-0.8292,-0.8299,-0.8286,-0.8281,-0.8293,-0.8277,-0.8274,-0.8267,-0.8263,-0.8272,-0.8251,-0.8249,-0.8227,-0.8219,-0.8216,-0.8211,-0.8221,-0.8185,-0.8181,-0.8178,-0.8166,-0.8161,-0.8217,-0.8217,-0.8217,-0.8217,0,-0.8273,-0.8262,-0.825,-0.8243,-0.8237,-0.8223,-0.8227,-0.822,-0.8224,-0.8225,-0.8208,-0.8205,-0.8196,-0.8191,-0.8196,-0.817,-0.8174,-0.8184,-0.8199,-0.8171,-0.816,-0.8156,-0.8215,-0.8215,-0.8216,-0.8216,0,0,-0.8232,-0.8228,-0.8224,-0.822,-0.8216,-0.8207,-0.8193,-0.8184,-0.8177,-0.8172,-0.8159,-0.8145,-0.8153,-0.8148,-0.8152,-0.8141,-0.8114,-0.8151,-0.8151,-0.8143,-0.8083,-0.8076,-0.807,-0.8119,-0.8118,-0.8117,-0.8083,0,-0.8202,-0.8178,-0.8183,-0.8159,-0.8148,-0.8159,-0.8146,-0.8142,-0.8142,-0.8132,-0.8132,-0.8121,-0.8134,-0.8131,-0.812,-0.8119,-0.8101,-0.8122,-0.8106,-0.8106,-0.8106,-0.8065,-0.8057,-0.8025,-0.8079,-0.8078,-0.8078,0,-0.8164,-0.8157,-0.8132,-0.8128,-0.8124,-0.8113,-0.8104,-0.8095,-0.809,-0.8091,-0.8084,-0.809,-0.8075,-0.8091,-0.8069,-0.8083,-0.8077,-0.8075,-0.8074,-0.8072,-0.809,-0.8061,-0.8015,-0.801,-0.8071,-0.8071,-0.8072,0,-0.8136,-0.812,-0.8103,-0.8099,-0.8095,-0.8086,-0.8084,-0.808,-0.8073,-0.8065,-0.8061,-0.8052,-0.8046,-0.8038,-0.8041,-0.8052,-0.8018,-0.8034,-0.8018,-0.8017,-0.801,-0.801,-0.7961,-0.8007,-0.8007,-0.8007,-0.8007,0,-0.8102,-0.8086,-0.809,-0.8079,-0.8061,-0.8066,-0.8048,-0.8047,-0.8042,-0.8031,-0.8039,-0.8028,-0.8033,-0.8022,-0.8024,-0.8005,-0.8003,-0.8002,-0.8003,-0.8001,-0.8001,-0.7996,-0.7998,-0.8006,-0.8006,-0.8006,-0.8007,0,-0.8067,-0.8069,-0.8051,-0.8048,-0.8046,-0.8033,-0.803,-0.8019,-0.802,-0.8005,-0.8002,-0.8002,-0.799,-0.7992,-0.7978,-0.7979,-0.7955,-0.7959,-0.7957,-0.7957,-0.794,-0.7941,-0.7886,-0.7879,-0.793,-0.7929,-0.7929,0,-0.8045,-0.8033,-0.8028,-0.8021,-0.8018,-0.8006,-0.8,-0.8004,-0.7996,-0.7989,-0.7979,-0.7967,-0.7957,-0.7936,-0.7935,-0.7923,-0.7926,-0.7908,-0.7925,-0.7923,-0.7925,-0.7925,-0.7923,-0.7904,-0.7904,-0.7903,-0.7903,0,-0.8005,-0.8006,-0.7996,-0.7986,-0.7978,-0.7971,-0.7964,-0.7957,-0.7961,-0.7952,-0.7939,-0.7931,-0.7917,-0.7904,-0.7893,-0.789,-0.7896,-0.7898,-0.7893,-0.7891,-0.789,-0.7889,-0.7946,-0.7899,-0.7899,-0.79,-0.79,-0.79,-0.7975,-0.7964,-0.7959,-0.7947,-0.7942,-0.7935,-0.7925,-0.7924,-0.7913,-0.7901,-0.7904,-0.7889,-0.7882,-0.7869,-0.7864,-0.7852,-0.7859,-0.7852,-0.785,-0.7848,-0.7846,-0.7892,-0.785,-0.785,-0.785,-0.785,-0.785,0,-0.7935,-0.7931,-0.7921,-0.791,-0.7901,-0.7908,-0.79,-0.7892,-0.7878,-0.7872,-0.7862,-0.7846,-0.7834,-0.7831,-0.7819,-0.7809,-0.7812,-0.7806,-0.7806,-0.7805,-0.7841,-0.7846,-0.7804,-0.7804,-0.7804,-0.7804,-0.7804,-0.7804,-0.7912,-0.7894,-0.7894,-0.7873,-0.787,-0.7855,-0.785,-0.7843,-0.7838,-0.782,-0.7809,-0.7808,-0.7802,-0.7789,-0.7778,-0.7777,-0.7772,-0.7764,-0.7765,-0.7798,-0.7803,-0.7807,-0.7812,-0.7763,-0.7763,-0.773,-0.773,-0.7729]}]]